This demonstration page uses our WeatherBlox Daily Observations layout. Learn more.

Left ArrowRight Arrow

36.17497, -115.13722

Hourly Observations for May 3, 2016

Temp ( °F °C ) Dew Point ( °F °C ) Humidity (%) Winds ( mph kmh ) Pressure ( in mb ) Visibility ( mi km ) Precip ( " mm )
12:53 am 00:53 Clear 67 19.4 37 2.8 33 33 NNW 7 11 30.04 1017 10 16.0934 0 0
1:53 am 01:53 Clear 63 17.2 39 3.9 41 41 N 6 9 30.04 1017 10 16.0934 0 0
2:53 am 02:53 Clear 62 16.7 40 4.4 44 44 NNW 7 11 30.04 1017 10 16.0934 0 0
3:53 am 03:53 Clear 62 16.7 40 4.4 44 44 NNW 6 9 30.05 1018 10 16.0934 0 0
4:53 am 04:53 Clear 62 16.7 38 3.3 41 41 NNW 12 19 30.05 1018 10 16.0934 0 0
5:53 am 05:53 Sunny 62 16.7 39 3.9 43 43 NNW 5 7 30.06 1018 10 16.0934 0 0
6:53 am 06:53 Sunny 64 17.8 39 3.9 40 40 N 3 6 30.08 1019 10 16.0934 0 0
7:53 am 07:53 Sunny 68 20 38 3.3 33 33 E 3 6 30.09 1019 10 16.0934 0 0
8:53 am 08:53 Sunny 70 21.1 38 3.3 31 31 Calm 30.1 1019 10 16.0934 0 0
9:53 am 09:53 Sunny 74 23.3 38 3.3 27 27 ENE 6 9 30.1 1019 10 16.0934 0 0
10:53 am 10:53 Sunny 76 24.4 36 2.2 23 23 E 12 19 30.09 1019 10 16.0934 0 0
11:53 am 11:53 Sunny 77 25 36 2.2 23 23 VRB 6 9 30.07 1018 10 16.0934 0 0
12:53 pm 12:53 Sunny 80 26.7 35 1.7 20 20 ENE 13 20 30.05 1018 10 16.0934 0 0
1:53 pm 13:53 Sunny 80 26.7 34 1.1 19 19 VRB 5 7 30.03 1017 10 16.0934 0 0
2:53 pm 14:53 Sunny 81 27.2 33 0.6 18 18 SE 5 7 30.01 1016 10 16.0934 0 0
3:53 pm 15:53 Sunny 82 27.8 29 -1.7 14 14 VRB 3 6 29.98 1015 10 16.0934 0 0
4:53 pm 16:53 Sunny 82 27.8 29 -1.7 14 14 Calm 29.96 1015 10 16.0934 0 0
5:53 pm 17:53 Sunny 82 27.8 28 -2.2 14 14 VRB 3 6 29.94 1014 10 16.0934 0 0
6:53 pm 18:53 Sunny 82 27.8 29 -1.7 14 14 Calm 29.94 1014 10 16.0934 0 0
7:53 pm 19:53 Clear 81 27.2 31 -0.6 16 16 NW 6 9 29.93 1014 10 16.0934 0 0
8:53 pm 20:53 Clear 78 25.6 32 0 19 19 NW 6 9 29.94 1014 10 16.0934 0 0
9:53 pm 21:53 Clear 76 24.4 35 1.7 23 23 NNW 5 7 29.94 1014 10 16.0934 0 0
10:53 pm 22:53 Clear 73 22.8 38 3.3 28 28 N 3 6 29.93 1014 10 16.0934 0 0
11:53 pm 23:53 Clear 71 21.7 39 3.9 31 31 N 5 7 29.94 1014 10 16.0934 0 0

Powered by AerisWeather